Time,TemperatureF,DewpointF,PressureIn,WindDirection,WindDirectionDegrees,WindSpeedMPH,WindSpeedGustMPH,Humidity,HourlyPrecipIn,Conditions,Clouds,dailyrainin,SolarRadiationWatts/m^2,SoftwareType,DateUTC
2013-06-07 00:00:00,66.2,61.9,25.92,East,84,1.0,1.0,86,0.00,,,0.00,0,Wunderground v.1.15,2013-06-07 06:00:00,
2013-06-07 00:05:00,66.0,61.7,25.92,East,84,0.0,1.0,86,0.00,,,0.00,0,Wunderground v.1.15,2013-06-07 06:05:00,
2013-06-07 00:15:00,66.0,61.7,25.91,NNE,32,0.0,1.0,86,0.00,,,0.00,0,Wunderground v.1.15,2013-06-07 06:15:00,
2013-06-07 00:25:00,66.3,62.0,25.91,NE,49,0.0,6.0,86,0.00,,,0.00,0,Wunderground v.1.15,2013-06-07 06:25:00,
2013-06-07 00:30:00,66.3,62.0,25.91,East,83,1.0,1.0,86,0.00,,,0.00,0,Wunderground v.1.15,2013-06-07 06:30:00,
2013-06-07 00:35:00,66.3,61.7,25.90,ESE,117,1.0,1.0,85,0.00,,,0.00,0,Wunderground v.1.15,2013-06-07 06:35:00,
2013-06-07 00:40:00,66.5,61.5,25.91,SSE,148,1.0,1.0,84,0.00,,,0.00,0,Wunderground v.1.15,2013-06-07 06:40:00,
2013-06-07 00:50:00,66.2,61.6,25.91,SSE,148,0.0,0.0,85,0.00,,,0.00,0,Wunderground v.1.15,2013-06-07 06:50:00,
2013-06-07 00:55:00,65.9,61.3,25.91,SSE,148,0.0,0.0,85,0.00,,,0.00,0,Wunderground v.1.15,2013-06-07 06:55:00,
2013-06-07 01:00:00,65.5,61.2,25.91,SSE,148,0.0,0.0,86,0.00,,,0.00,0,Wunderground v.1.15,2013-06-07 07:00:00,
2013-06-07 01:10:00,65.2,61.2,25.90,SSE,148,0.0,0.0,87,0.00,,,0.00,0,Wunderground v.1.15,2013-06-07 07:10:00,
2013-06-07 01:15:00,65.2,61.2,25.90,SSE,148,1.0,1.0,87,0.00,,,0.00,0,Wunderground v.1.15,2013-06-07 07:15:00,
2013-06-07 01:20:00,65.2,61.2,25.90,SSE,148,0.0,1.0,87,0.00,,,0.00,0,Wunderground v.1.15,2013-06-07 07:20:00,
2013-06-07 01:25:00,65.2,61.2,25.90,SSE,148,1.0,1.0,87,0.00,,,0.00,0,Wunderground v.1.15,2013-06-07 07:25:00,
2013-06-07 01:30:00,65.2,61.6,25.90,SSE,148,0.0,0.0,88,0.00,,,0.00,0,Wunderground v.1.15,2013-06-07 07:30:00,
2013-06-07 01:40:00,65.2,61.2,25.90,East,87,1.0,1.0,87,0.00,,,0.00,0,Wunderground v.1.15,2013-06-07 07:40:00,
2013-06-07 01:45:00,65.2,61.2,25.90,South,173,1.0,1.0,87,0.00,,,0.00,0,Wunderground v.1.15,2013-06-07 07:45:00,
2013-06-07 01:50:00,65.2,61.2,25.89,South,173,0.0,0.0,87,0.00,,,0.00,0,Wunderground v.1.15,2013-06-07 07:50:00,
2013-06-07 01:55:00,65.1,61.1,25.89,South,173,0.0,0.0,87,0.00,,,0.00,0,Wunderground v.1.15,2013-06-07 07:55:00,
2013-06-07 02:05:00,64.9,60.9,25.89,South,173,1.0,1.0,87,0.00,,,0.00,0,Wunderground v.1.15,2013-06-07 08:05:00,
2013-06-07 02:10:00,64.6,60.6,25.89,South,173,1.0,1.0,87,0.00,,,0.00,0,Wunderground v.1.15,2013-06-07 08:10:00,
2013-06-07 02:15:00,64.4,60.4,25.89,South,173,1.0,1.0,87,0.00,,,0.00,0,Wunderground v.1.15,2013-06-07 08:15:00,
2013-06-07 02:20:00,64.2,60.2,25.89,East,92,0.0,0.0,87,0.00,,,0.00,0,Wunderground v.1.15,2013-06-07 08:20:00,
2013-06-07 02:25:00,64.2,60.2,25.89,East,92,0.0,0.0,87,0.00,,,0.00,0,Wunderground v.1.15,2013-06-07 08:25:00,
2013-06-07 02:30:00,64.1,60.5,25.89,East,92,0.0,0.0,88,0.00,,,0.00,0,Wunderground v.1.15,2013-06-07 08:30:00,
2013-06-07 02:40:00,64.1,60.5,25.89,East,92,0.0,1.0,88,0.00,,,0.00,0,Wunderground v.1.15,2013-06-07 08:40:00,
2013-06-07 02:45:00,64.2,60.6,25.89,East,92,0.0,1.0,88,0.00,,,0.00,0,Wunderground v.1.15,2013-06-07 08:45:00,
2013-06-07 02:55:00,64.2,60.6,25.89,East,92,0.0,2.0,88,0.00,,,0.00,0,Wunderground v.1.15,2013-06-07 08:55:00,
2013-06-07 03:00:00,64.4,60.8,25.89,East,92,0.0,0.0,88,0.00,,,0.00,0,Wunderground v.1.15,2013-06-07 09:00:00,
2013-06-07 03:05:00,64.6,61.0,25.89,East,92,0.0,0.0,88,0.00,,,0.00,0,Wunderground v.1.15,2013-06-07 09:05:00,
2013-06-07 03:10:00,64.7,61.1,25.89,East,84,0.0,0.0,88,0.00,,,0.00,0,Wunderground v.1.15,2013-06-07 09:10:00,
2013-06-07 03:20:00,64.9,60.9,25.89,East,101,0.0,0.0,87,0.00,,,0.00,0,Wunderground v.1.15,2013-06-07 09:20:00,
2013-06-07 03:25:00,64.7,60.7,25.89,East,101,0.0,0.0,87,0.00,,,0.00,0,Wunderground v.1.15,2013-06-07 09:25:00,
2013-06-07 03:30:00,64.7,60.7,25.89,East,101,0.0,1.0,87,0.00,,,0.00,0,Wunderground v.1.15,2013-06-07 09:30:00,
2013-06-07 03:35:00,64.7,60.7,25.89,East,101,0.0,1.0,87,0.00,,,0.00,0,Wunderground v.1.15,2013-06-07 09:35:00,
2013-06-07 03:40:00,64.7,61.1,25.89,East,101,0.0,2.0,88,0.00,,,0.00,0,Wunderground v.1.15,2013-06-07 09:40:00,
2013-06-07 03:45:00,64.4,60.8,25.89,East,101,0.0,2.0,88,0.00,,,0.00,0,Wunderground v.1.15,2013-06-07 09:45:00,
2013-06-07 03:55:00,64.1,60.5,25.89,East,101,0.0,0.0,88,0.00,,,0.00,0,Wunderground v.1.15,2013-06-07 09:55:00,
2013-06-07 04:00:00,63.9,60.3,25.89,East,101,0.0,0.0,88,0.00,,,0.00,0,Wunderground v.1.15,2013-06-07 10:00:00,
2013-06-07 04:05:00,63.4,59.8,25.89,East,101,0.0,0.0,88,0.00,,,0.00,0,Wunderground v.1.15,2013-06-07 10:05:00,
2013-06-07 04:10:00,63.3,59.7,25.89,East,101,0.0,0.0,88,0.00,,,0.00,0,Wunderground v.1.15,2013-06-07 10:10:00,
2013-06-07 04:15:00,63.1,59.5,25.89,East,101,0.0,0.0,88,0.00,,,0.00,0,Wunderground v.1.15,2013-06-07 10:15:00,
2013-06-07 04:25:00,63.0,59.7,25.90,East,101,0.0,1.0,89,0.00,,,0.00,0,Wunderground v.1.15,2013-06-07 10:25:00,
2013-06-07 04:30:00,62.8,59.5,25.90,East,101,0.0,0.0,89,0.00,,,0.00,0,Wunderground v.1.15,2013-06-07 10:30:00,
2013-06-07 04:35:00,62.8,59.8,25.90,East,101,0.0,0.0,90,0.00,,,0.00,0,Wunderground v.1.15,2013-06-07 10:35:00,
2013-06-07 04:40:00,62.6,59.3,25.90,East,101,0.0,0.0,89,0.00,,,0.00,0,Wunderground v.1.15,2013-06-07 10:40:00,
2013-06-07 04:50:00,62.5,59.5,25.90,East,101,0.0,0.0,90,0.00,,,0.00,0,Wunderground v.1.15,2013-06-07 10:50:00,
2013-06-07 04:55:00,62.5,59.8,25.90,East,101,0.0,0.0,91,0.00,,,0.00,0,Wunderground v.1.15,2013-06-07 10:55:00,
2013-06-07 05:00:00,62.5,59.8,25.90,East,101,0.0,0.0,91,0.00,,,0.00,0,Wunderground v.1.15,2013-06-07 11:00:00,
2013-06-07 05:05:00,62.5,60.1,25.90,East,101,0.0,0.0,92,0.00,,,0.00,0,Wunderground v.1.15,2013-06-07 11:05:00,
2013-06-07 05:10:00,62.5,60.4,25.90,East,101,0.0,0.0,93,0.00,,,0.00,0,Wunderground v.1.15,2013-06-07 11:10:00,
2013-06-07 05:15:00,62.5,60.4,25.90,East,101,0.0,0.0,93,0.00,,,0.00,0,Wunderground v.1.15,2013-06-07 11:15:00,
2013-06-07 05:25:00,62.3,60.6,25.91,East,101,0.0,0.0,94,0.00,,,0.00,12,Wunderground v.1.15,2013-06-07 11:25:00,
2013-06-07 05:30:00,62.3,60.6,25.91,East,101,0.0,0.0,94,0.00,,,0.00,19,Wunderground v.1.15,2013-06-07 11:30:00,
2013-06-07 05:35:00,62.5,61.0,25.91,East,101,0.0,0.0,95,0.00,,,0.00,26,Wunderground v.1.15,2013-06-07 11:35:00,
2013-06-07 05:45:00,62.8,61.3,25.91,SE,136,1.0,1.0,95,0.00,,,0.00,39,Wunderground v.1.15,2013-06-07 11:45:00,
2013-06-07 05:55:00,63.4,61.3,25.92,SE,136,0.0,1.0,93,0.00,,,0.00,69,Wunderground v.1.15,2013-06-07 11:55:00,
2013-06-07 06:00:00,63.8,60.8,25.92,SE,136,0.0,0.0,90,0.00,,,0.00,79,Wunderground v.1.15,2013-06-07 12:00:00,
2013-06-07 06:10:00,64.7,60.4,25.92,SE,136,0.0,0.0,86,0.00,,,0.00,90,Wunderground v.1.15,2013-06-07 12:10:00,
2013-06-07 06:15:00,65.2,60.2,25.93,SE,136,0.0,0.0,84,0.00,,,0.00,105,Wunderground v.1.15,2013-06-07 12:15:00,
2013-06-07 06:25:00,65.9,60.2,25.93,SE,136,0.0,0.0,82,0.00,,,0.00,142,Wunderground v.1.15,2013-06-07 12:25:00,
2013-06-07 06:30:00,66.3,61.0,25.93,SE,136,0.0,0.0,83,0.00,,,0.00,155,Wunderground v.1.15,2013-06-07 12:30:00,
2013-06-07 06:35:00,66.8,61.1,25.93,SE,136,0.0,0.0,82,0.00,,,0.00,163,Wunderground v.1.15,2013-06-07 12:35:00,
2013-06-07 06:40:00,67.2,60.5,25.93,SE,136,0.0,0.0,79,0.00,,,0.00,190,Wunderground v.1.15,2013-06-07 12:40:00,
2013-06-07 06:45:00,67.8,60.7,25.94,SE,136,0.0,0.0,78,0.00,,,0.00,200,Wunderground v.1.15,2013-06-07 12:45:00,
2013-06-07 06:55:00,69.0,61.5,25.94,SE,136,0.0,0.0,77,0.00,,,0.00,225,Wunderground v.1.15,2013-06-07 12:55:00,
2013-06-07 07:00:00,69.2,61.3,25.94,SE,136,0.0,0.0,76,0.00,,,0.00,255,Wunderground v.1.15,2013-06-07 13:00:00,
2013-06-07 07:05:00,69.0,60.4,25.94,NE,44,0.0,0.0,74,0.00,,,0.00,274,Wunderground v.1.15,2013-06-07 13:05:00,
2013-06-07 07:15:00,69.0,60.4,25.93,NE,44,0.0,0.0,74,0.00,,,0.00,325,Wunderground v.1.15,2013-06-07 13:15:00,
2013-06-07 07:20:00,69.3,60.3,25.93,NE,44,0.0,0.0,73,0.00,,,0.00,323,Wunderground v.1.15,2013-06-07 13:20:00,
2013-06-07 07:30:00,70.3,60.8,25.93,ENE,66,0.0,1.0,72,0.00,,,0.00,374,Wunderground v.1.15,2013-06-07 13:30:00,
2013-06-07 07:40:00,71.4,61.1,25.93,ESE,103,1.0,1.0,70,0.00,,,0.00,410,Wunderground v.1.15,2013-06-07 13:40:00,
2013-06-07 07:45:00,71.9,60.3,25.93,ESE,103,1.0,1.0,67,0.00,,,0.00,420,Wunderground v.1.15,2013-06-07 13:45:00,
2013-06-07 07:50:00,72.6,61.0,25.93,ESE,105,0.0,0.0,67,0.00,,,0.00,432,Wunderground v.1.15,2013-06-07 13:50:00,
2013-06-07 07:55:00,73.4,62.2,25.93,ESE,105,0.0,0.0,68,0.00,,,0.00,454,Wunderground v.1.15,2013-06-07 13:55:00,
2013-06-07 08:00:00,74.1,61.1,25.93,ESE,105,0.0,0.0,64,0.00,,,0.00,478,Wunderground v.1.15,2013-06-07 14:00:00,
2013-06-07 08:10:00,75.0,61.5,25.93,ENE,78,1.0,1.0,63,0.00,,,0.00,526,Wunderground v.1.15,2013-06-07 14:10:00,
2013-06-07 08:20:00,75.3,60.9,25.93,East,99,1.0,2.0,61,0.00,,,0.00,545,Wunderground v.1.15,2013-06-07 14:20:00,
2013-06-07 08:25:00,75.7,61.3,25.93,East,99,1.0,2.0,61,0.00,,,0.00,550,Wunderground v.1.15,2013-06-07 14:25:00,
2013-06-07 08:30:00,76.2,61.3,25.93,NE,38,1.0,1.0,60,0.00,,,0.00,568,Wunderground v.1.15,2013-06-07 14:30:00,
2013-06-07 08:40:00,76.4,60.5,25.94,ENE,68,2.0,2.0,58,0.00,,,0.00,599,Wunderground v.1.15,2013-06-07 14:40:00,
2013-06-07 08:50:00,76.2,61.8,25.94,NE,34,3.0,3.0,61,0.00,,,0.00,631,Wunderground v.1.15,2013-06-07 14:50:00,
2013-06-07 08:55:00,76.6,60.7,25.94,WNW,299,3.0,3.0,58,0.00,,,0.00,675,Wunderground v.1.15,2013-06-07 14:55:00,
2013-06-07 09:00:00,76.4,60.5,25.93,SE,136,3.0,3.0,58,0.00,,,0.00,686,Wunderground v.1.15,2013-06-07 15:00:00,
2013-06-07 09:05:00,76.6,61.2,25.93,North,355,3.0,3.0,59,0.00,,,0.00,717,Wunderground v.1.15,2013-06-07 15:05:00,
2013-06-07 09:15:00,77.1,60.7,25.93,North,11,3.0,5.0,57,0.00,,,0.00,703,Wunderground v.1.15,2013-06-07 15:15:00,
2013-06-07 09:20:00,77.3,62.8,25.93,NE,36,3.0,3.0,61,0.00,,,0.00,724,Wunderground v.1.15,2013-06-07 15:20:00,
2013-06-07 09:25:00,77.6,62.6,25.93,WNW,301,3.0,3.0,60,0.00,,,0.00,726,Wunderground v.1.15,2013-06-07 15:25:00,
2013-06-07 09:30:00,77.3,61.9,25.93,North,360,3.0,3.0,59,0.00,,,0.00,738,Wunderground v.1.15,2013-06-07 15:30:00,
2013-06-07 09:35:00,77.5,63.0,25.94,WNW,290,3.0,3.0,61,0.00,,,0.00,768,Wunderground v.1.15,2013-06-07 15:35:00,
2013-06-07 09:40:00,77.6,62.1,25.94,WNW,302,3.0,3.0,59,0.00,,,0.00,800,Wunderground v.1.15,2013-06-07 15:40:00,
2013-06-07 09:50:00,77.3,62.3,25.94,ENE,63,3.0,3.0,60,0.00,,,0.00,821,Wunderground v.1.15,2013-06-07 15:50:00,
2013-06-07 09:55:00,77.3,62.3,25.94,ENE,69,4.0,4.0,60,0.00,,,0.00,800,Wunderground v.1.15,2013-06-07 15:55:00,
2013-06-07 10:00:00,77.6,63.1,25.94,West,281,3.0,3.0,61,0.00,,,0.00,835,Wunderground v.1.15,2013-06-07 16:00:00,
2013-06-07 10:05:00,77.6,63.1,25.94,NNW,336,3.0,8.0,61,0.00,,,0.00,833,Wunderground v.1.15,2013-06-07 16:05:00,
2013-06-07 10:15:00,77.8,62.8,25.94,East,101,4.0,4.0,60,0.00,,,0.00,898,Wunderground v.1.15,2013-06-07 16:15:00,
2013-06-07 10:20:00,78.0,63.5,25.94,West,275,4.0,4.0,61,0.00,,,0.00,900,Wunderground v.1.15,2013-06-07 16:20:00,
2013-06-07 10:25:00,78.4,62.4,25.94,WNW,287,5.0,5.0,58,0.00,,,0.00,916,Wunderground v.1.15,2013-06-07 16:25:00,
2013-06-07 10:30:00,78.2,63.2,25.95,WNW,283,4.0,5.0,60,0.00,,,0.00,904,Wunderground v.1.15,2013-06-07 16:30:00,
2013-06-07 10:35:00,78.5,63.0,25.94,West,262,4.0,5.0,59,0.00,,,0.00,942,Wunderground v.1.15,2013-06-07 16:35:00,
2013-06-07 10:40:00,78.7,62.7,25.94,ESE,107,4.0,4.0,58,0.00,,,0.00,942,Wunderground v.1.15,2013-06-07 16:40:00,
2013-06-07 10:50:00,78.5,63.0,25.94,North,360,4.0,4.0,59,0.00,,,0.00,991,Wunderground v.1.15,2013-06-07 16:50:00,
2013-06-07 10:55:00,79.3,62.7,25.94,WSW,246,3.0,4.0,57,0.00,,,0.00,1088,Wunderground v.1.15,2013-06-07 16:55:00,
2013-06-07 11:00:00,79.5,63.4,25.94,NNE,30,4.0,4.0,58,0.00,,,0.00,1088,Wunderground v.1.15,2013-06-07 17:00:00,
2013-06-07 11:05:00,79.7,64.6,25.94,NW,325,4.0,4.0,60,0.00,,,0.00,471,Wunderground v.1.15,2013-06-07 17:05:00,
2013-06-07 11:10:00,79.7,64.6,25.94,West,264,3.0,5.0,60,0.00,,,0.00,243,Wunderground v.1.15,2013-06-07 17:10:00,
2013-06-07 11:20:00,79.1,64.0,25.94,WNW,298,2.0,5.0,60,0.00,,,0.00,285,Wunderground v.1.15,2013-06-07 17:20:00,
2013-06-07 11:25:00,79.1,64.0,25.94,West,281,3.0,5.0,60,0.00,,,0.00,380,Wunderground v.1.15,2013-06-07 17:25:00,
2013-06-07 11:30:00,79.8,63.7,25.94,SW,235,3.0,3.0,58,0.00,,,0.00,1051,Wunderground v.1.15,2013-06-07 17:30:00,
2013-06-07 11:40:00,80.4,63.3,25.93,NW,306,3.0,5.0,56,0.00,,,0.00,322,Wunderground v.1.15,2013-06-07 17:40:00,
2013-06-07 11:45:00,79.7,64.1,25.93,West,273,3.0,5.0,59,0.00,,,0.00,336,Wunderground v.1.15,2013-06-07 17:45:00,
2013-06-07 11:55:00,78.7,64.6,25.93,WSW,257,3.0,4.0,62,0.00,,,0.00,404,Wunderground v.1.15,2013-06-07 17:55:00,
2013-06-07 12:00:00,78.9,64.3,25.92,SSW,212,2.0,7.0,61,0.00,,,0.00,360,Wunderground v.1.15,2013-06-07 18:00:00,
2013-06-07 12:05:00,79.5,64.9,25.92,West,271,2.0,7.0,61,0.00,,,0.00,432,Wunderground v.1.15,2013-06-07 18:05:00,
2013-06-07 12:10:00,79.7,64.6,25.92,WSW,257,4.0,4.0,60,0.00,,,0.00,534,Wunderground v.1.15,2013-06-07 18:10:00,
2013-06-07 12:15:00,79.7,65.1,25.92,SW,222,3.0,6.0,61,0.00,,,0.00,390,Wunderground v.1.15,2013-06-07 18:15:00,
2013-06-07 12:25:00,79.5,65.3,25.92,West,267,3.0,4.0,62,0.00,,,0.00,357,Wunderground v.1.15,2013-06-07 18:25:00,
2013-06-07 12:30:00,79.1,65.0,25.91,WNW,295,3.0,4.0,62,0.00,,,0.00,979,Wunderground v.1.15,2013-06-07 18:30:00,
2013-06-07 12:40:00,80.0,65.8,25.91,WNW,291,4.0,4.0,62,0.00,,,0.00,970,Wunderground v.1.15,2013-06-07 18:40:00,
2013-06-07 12:45:00,80.6,65.4,25.91,ESE,105,4.0,4.0,60,0.00,,,0.00,986,Wunderground v.1.15,2013-06-07 18:45:00,
2013-06-07 12:55:00,81.7,65.0,25.91,West,279,3.0,3.0,57,0.00,,,0.00,1030,Wunderground v.1.15,2013-06-07 18:55:00,
2013-06-07 13:00:00,82.1,65.4,25.90,SW,232,3.0,3.0,57,0.00,,,0.00,388,Wunderground v.1.15,2013-06-07 19:00:00,
2013-06-07 13:10:00,82.1,65.9,25.89,West,259,3.0,4.0,58,0.00,,,0.00,1020,Wunderground v.1.15,2013-06-07 19:10:00,
2013-06-07 13:20:00,82.7,65.4,25.89,WSW,242,2.0,3.0,56,0.00,,,0.00,378,Wunderground v.1.15,2013-06-07 19:20:00,
2013-06-07 13:25:00,83.1,66.8,25.88,SW,218,3.0,4.0,58,0.00,,,0.00,911,Wunderground v.1.15,2013-06-07 19:25:00,
2013-06-07 13:30:00,83.1,65.8,25.88,WSW,254,3.0,3.0,56,0.00,,,0.00,241,Wunderground v.1.15,2013-06-07 19:30:00,
2013-06-07 13:40:00,80.8,66.1,25.88,NE,49,2.0,4.0,61,0.00,,,0.00,167,Wunderground v.1.15,2013-06-07 19:40:00,
2013-06-07 13:45:00,78.7,64.1,25.88,NNW,332,3.0,4.0,61,0.00,,,0.00,227,Wunderground v.1.15,2013-06-07 19:45:00,
2013-06-07 13:55:00,77.6,63.1,25.88,NW,324,3.0,3.0,61,0.00,,,0.00,322,Wunderground v.1.15,2013-06-07 19:55:00,
2013-06-07 14:00:00,77.6,63.1,25.88,NW,305,3.0,4.0,61,0.00,,,0.00,345,Wunderground v.1.15,2013-06-07 20:00:00,
2013-06-07 14:10:00,78.2,63.2,25.88,ESE,112,4.0,4.0,60,0.00,,,0.00,378,Wunderground v.1.15,2013-06-07 20:10:00,
2013-06-07 14:15:00,78.4,63.4,25.88,ENE,57,4.0,4.0,60,0.00,,,0.00,318,Wunderground v.1.15,2013-06-07 20:15:00,
2013-06-07 14:25:00,78.2,64.1,25.88,North,355,4.0,5.0,62,0.00,,,0.00,601,Wunderground v.1.15,2013-06-07 20:25:00,
2013-06-07 14:35:00,78.5,63.9,25.88,NE,34,4.0,5.0,61,0.00,,,0.00,492,Wunderground v.1.15,2013-06-07 20:35:00,
2013-06-07 14:40:00,78.0,63.9,25.88,NW,323,5.0,7.0,62,0.00,,,0.00,545,Wunderground v.1.15,2013-06-07 20:40:00,
2013-06-07 14:45:00,77.6,63.5,25.87,West,280,5.0,7.0,62,0.00,,,0.00,285,Wunderground v.1.15,2013-06-07 20:45:00,
2013-06-07 14:50:00,77.6,63.1,25.87,NNE,33,4.0,4.0,61,0.00,,,0.00,482,Wunderground v.1.15,2013-06-07 20:50:00,
2013-06-07 15:00:00,77.8,63.3,25.86,NE,38,4.0,4.0,61,0.00,,,0.00,339,Wunderground v.1.15,2013-06-07 21:00:00,
2013-06-07 15:05:00,77.5,63.5,25.87,NE,46,4.0,4.0,62,0.00,,,0.00,621,Wunderground v.1.15,2013-06-07 21:05:00,
2013-06-07 15:10:00,77.3,63.3,25.87,WNW,300,3.0,3.0,62,0.00,,,0.00,564,Wunderground v.1.15,2013-06-07 21:10:00,
2013-06-07 15:15:00,76.7,63.2,25.87,ENE,65,3.0,6.0,63,0.00,,,0.00,109,Wunderground v.1.15,2013-06-07 21:15:00,
2013-06-07 15:20:00,76.2,63.6,25.87,WNW,295,4.0,4.0,65,0.00,,,0.00,169,Wunderground v.1.15,2013-06-07 21:20:00,
2013-06-07 15:25:00,75.7,63.5,25.87,North,355,4.0,4.0,66,0.00,,,0.00,142,Wunderground v.1.15,2013-06-07 21:25:00,
2013-06-07 15:40:00,75.5,63.8,25.87,NW,312,3.0,3.0,67,0.00,,,0.00,457,Wunderground v.1.15,2013-06-07 21:40:00,
2013-06-07 15:45:00,75.7,63.5,25.87,NNW,344,3.0,3.0,66,0.00,,,0.00,267,Wunderground v.1.15,2013-06-07 21:45:00,
2013-06-07 15:50:00,75.9,64.2,25.87,NNE,30,3.0,3.0,67,0.00,,,0.00,153,Wunderground v.1.15,2013-06-07 21:50:00,
2013-06-07 16:00:00,75.0,66.1,25.88,NNE,21,2.0,2.0,74,0.00,,,0.01,47,Wunderground v.1.15,2013-06-07 22:00:00,
2013-06-07 16:10:00,72.9,66.7,25.88,East,90,2.0,5.0,81,0.57,,,0.03,40,Wunderground v.1.15,2013-06-07 22:10:00,
2013-06-07 16:20:00,71.2,66.5,25.88,WNW,302,3.0,4.0,85,0.09,,,0.06,53,Wunderground v.1.15,2013-06-07 22:20:00,
2013-06-07 16:25:00,70.8,66.4,25.88,North,5,2.0,4.0,86,0.05,,,0.06,40,Wunderground v.1.15,2013-06-07 22:25:00,
2013-06-07 16:35:00,70.8,66.1,25.88,North,5,2.0,2.0,85,0.00,,,0.06,44,Wunderground v.1.15,2013-06-07 22:35:00,
2013-06-07 16:40:00,70.8,66.1,25.88,NNW,343,1.0,1.0,85,0.00,,,0.06,39,Wunderground v.1.15,2013-06-07 22:40:00,
2013-06-07 16:50:00,70.7,65.6,25.88,North,5,2.0,3.0,84,0.00,,,0.06,84,Wunderground v.1.15,2013-06-07 22:50:00,
2013-06-07 16:55:00,70.8,65.4,25.87,NNW,345,2.0,3.0,83,0.00,,,0.06,84,Wunderground v.1.15,2013-06-07 22:55:00,
2013-06-07 17:00:00,71.0,65.2,25.88,North,5,2.0,3.0,82,0.00,,,0.06,76,Wunderground v.1.15,2013-06-07 23:00:00,
2013-06-07 17:10:00,71.4,64.9,25.88,NNE,17,3.0,3.0,80,0.00,,,0.06,67,Wunderground v.1.15,2013-06-07 23:10:00,
2013-06-07 17:15:00,71.4,64.9,25.88,North,360,2.0,4.0,80,0.00,,,0.06,54,Wunderground v.1.15,2013-06-07 23:15:00,
2013-06-07 17:20:00,71.4,65.3,25.89,East,101,1.0,1.0,81,0.00,,,0.06,25,Wunderground v.1.15,2013-06-07 23:20:00,
2013-06-07 17:25:00,71.4,64.9,25.89,NE,35,2.0,2.0,80,0.00,,,0.06,28,Wunderground v.1.15,2013-06-07 23:25:00,
2013-06-07 17:30:00,71.4,65.3,25.89,WNW,303,2.0,11.0,81,0.00,,,0.06,25,Wunderground v.1.15,2013-06-07 23:30:00,
2013-06-07 17:35:00,71.4,65.3,25.89,NE,49,2.0,11.0,81,0.00,,,0.06,12,Wunderground v.1.15,2013-06-07 23:35:00,
2013-06-07 17:45:00,71.4,64.9,25.89,NW,319,2.0,2.0,80,0.00,,,0.06,0,Wunderground v.1.15,2013-06-07 23:45:00,
2013-06-07 17:55:00,71.2,65.1,25.89,NE,38,1.0,2.0,81,0.00,,,0.06,0,Wunderground v.1.15,2013-06-07 23:55:00,
2013-06-07 18:10:00,70.7,64.6,25.89,WNW,285,1.0,1.0,81,0.00,,,0.06,0,Wunderground v.1.15,2013-06-08 00:10:00,
2013-06-07 18:20:00,70.5,64.4,25.89,NW,306,1.0,1.0,81,0.00,,,0.06,0,Wunderground v.1.15,2013-06-08 00:20:00,
2013-06-07 18:25:00,70.3,64.2,25.89,NW,321,2.0,2.0,81,0.00,,,0.06,0,Wunderground v.1.15,2013-06-08 00:25:00,
2013-06-07 18:35:00,70.0,64.2,25.89,East,94,1.0,2.0,82,0.00,,,0.06,0,Wunderground v.1.15,2013-06-08 00:35:00,
2013-06-07 18:40:00,69.8,64.1,25.89,NNW,334,2.0,2.0,82,0.00,,,0.06,0,Wunderground v.1.15,2013-06-08 00:40:00,
2013-06-07 18:50:00,69.7,64.0,25.90,WNW,290,2.0,2.0,82,0.00,,,0.06,0,Wunderground v.1.15,2013-06-08 00:50:00,
2013-06-07 18:55:00,69.7,64.0,25.90,North,5,2.0,3.0,82,0.00,,,0.06,0,Wunderground v.1.15,2013-06-08 00:55:00,
2013-06-07 19:05:00,69.7,64.0,25.90,ESE,107,2.0,3.0,82,0.00,,,0.06,0,Wunderground v.1.15,2013-06-08 01:05:00,
2013-06-07 19:15:00,69.8,63.7,25.91,SE,124,1.0,2.0,81,0.00,,,0.06,0,Wunderground v.1.15,2013-06-08 01:15:00,
2013-06-07 19:25:00,70.0,63.9,25.91,SE,138,0.0,1.0,81,0.00,,,0.06,0,Wunderground v.1.15,2013-06-08 01:25:00,
2013-06-07 19:35:00,70.2,63.7,25.91,ESE,103,1.0,1.0,80,0.00,,,0.06,0,Wunderground v.1.15,2013-06-08 01:35:00,
2013-06-07 19:40:00,70.3,63.8,25.91,ENE,64,1.0,1.0,80,0.00,,,0.06,0,Wunderground v.1.15,2013-06-08 01:40:00,
2013-06-07 19:45:00,70.2,64.1,25.92,East,82,1.0,1.0,81,0.00,,,0.06,0,Wunderground v.1.15,2013-06-08 01:45:00,
2013-06-07 19:55:00,69.5,63.4,25.92,East,84,2.0,2.0,81,0.00,,,0.06,0,Wunderground v.1.15,2013-06-08 01:55:00,
2013-06-07 20:00:00,69.3,63.2,25.92,NNW,329,2.0,2.0,81,0.00,,,0.06,0,Wunderground v.1.15,2013-06-08 02:00:00,
2013-06-07 20:05:00,69.3,63.2,25.92,ESE,121,1.0,2.0,81,0.00,,,0.06,0,Wunderground v.1.15,2013-06-08 02:05:00,
2013-06-07 20:10:00,69.3,63.2,25.92,NNW,329,1.0,1.0,81,0.00,,,0.06,0,Wunderground v.1.15,2013-06-08 02:10:00,
2013-06-07 20:20:00,69.3,63.2,25.93,NNE,33,1.0,3.0,81,0.00,,,0.06,0,Wunderground v.1.15,2013-06-08 02:20:00,
2013-06-07 20:25:00,69.3,63.6,25.93,North,360,1.0,3.0,82,0.00,,,0.06,0,Wunderground v.1.15,2013-06-08 02:25:00,
2013-06-07 20:35:00,69.3,63.2,25.93,ESE,103,1.0,5.0,81,0.00,,,0.06,0,Wunderground v.1.15,2013-06-08 02:35:00,
2013-06-07 20:40:00,69.3,63.2,25.93,ESE,117,2.0,4.0,81,0.00,,,0.06,0,Wunderground v.1.15,2013-06-08 02:40:00,
2013-06-07 20:45:00,69.2,63.1,25.93,ESE,109,2.0,4.0,81,0.00,,,0.06,0,Wunderground v.1.15,2013-06-08 02:45:00,
2013-06-07 20:55:00,69.3,62.5,25.93,SSW,196,2.0,2.0,79,0.00,,,0.06,0,Wunderground v.1.15,2013-06-08 02:55:00,
2013-06-07 21:00:00,69.3,62.1,25.93,ESE,109,1.0,1.0,78,0.00,,,0.06,0,Wunderground v.1.15,2013-06-08 03:00:00,
2013-06-07 21:05:00,69.3,62.1,25.94,NNW,335,1.0,1.0,78,0.00,,,0.06,0,Wunderground v.1.15,2013-06-08 03:05:00,
2013-06-07 21:10:00,69.0,62.6,25.94,NE,52,1.0,1.0,80,0.00,,,0.06,0,Wunderground v.1.15,2013-06-08 03:10:00,
2013-06-07 21:15:00,69.0,62.2,25.94,ENE,61,1.0,1.0,79,0.00,,,0.06,0,Wunderground v.1.15,2013-06-08 03:15:00,
2013-06-07 21:20:00,68.8,62.0,25.94,NW,313,2.0,2.0,79,0.00,,,0.06,0,Wunderground v.1.15,2013-06-08 03:20:00,
2013-06-07 21:30:00,68.7,61.9,25.94,SE,142,1.0,2.0,79,0.00,,,0.06,0,Wunderground v.1.15,2013-06-08 03:30:00,
2013-06-07 21:35:00,68.5,61.7,25.94,East,86,1.0,2.0,79,0.00,,,0.06,0,Wunderground v.1.15,2013-06-08 03:35:00,
2013-06-07 21:45:00,68.3,61.5,25.94,SE,127,2.0,4.0,79,0.00,,,0.06,0,Wunderground v.1.15,2013-06-08 03:45:00,
2013-06-07 21:50:00,68.3,61.5,25.94,East,86,2.0,2.0,79,0.00,,,0.06,0,Wunderground v.1.15,2013-06-08 03:50:00,
2013-06-07 22:00:00,68.2,62.1,25.95,East,85,1.0,1.0,81,0.00,,,0.06,0,Wunderground v.1.15,2013-06-08 04:00:00,
2013-06-07 22:05:00,68.2,62.1,25.95,East,86,0.0,1.0,81,0.00,,,0.06,0,Wunderground v.1.15,2013-06-08 04:05:00,
2013-06-07 22:10:00,68.0,62.6,25.95,East,86,0.0,0.0,83,0.00,,,0.06,0,Wunderground v.1.15,2013-06-08 04:10:00,
2013-06-07 22:15:00,67.8,62.4,25.95,East,86,0.0,0.0,83,0.00,,,0.06,0,Wunderground v.1.15,2013-06-08 04:15:00,
2013-06-07 22:20:00,67.5,61.8,25.95,East,86,0.0,0.0,82,0.00,,,0.06,0,Wunderground v.1.15,2013-06-08 04:20:00,
2013-06-07 22:25:00,67.5,61.8,25.95,East,85,0.0,0.0,82,0.00,,,0.06,0,Wunderground v.1.15,2013-06-08 04:25:00,
2013-06-07 22:30:00,67.5,62.5,25.95,East,86,0.0,0.0,84,0.00,,,0.06,0,Wunderground v.1.15,2013-06-08 04:30:00,
2013-06-07 22:35:00,67.5,62.5,25.95,East,86,0.0,1.0,84,0.00,,,0.06,0,Wunderground v.1.15,2013-06-08 04:35:00,
2013-06-07 22:40:00,67.3,62.3,25.94,East,86,0.0,0.0,84,0.00,,,0.06,0,Wunderground v.1.15,2013-06-08 04:40:00,
2013-06-07 22:45:00,67.2,61.9,25.94,East,86,0.0,0.0,83,0.00,,,0.06,0,Wunderground v.1.15,2013-06-08 04:45:00,
2013-06-07 22:55:00,67.0,61.3,25.94,East,85,0.0,0.0,82,0.00,,,0.06,0,Wunderground v.1.15,2013-06-08 04:55:00,
2013-06-07 23:00:00,67.0,61.3,25.94,East,86,0.0,0.0,82,0.00,,,0.06,0,Wunderground v.1.15,2013-06-08 05:00:00,
2013-06-07 23:05:00,66.8,60.8,25.94,East,86,0.0,0.0,81,0.00,,,0.06,0,Wunderground v.1.15,2013-06-08 05:05:00,
2013-06-07 23:10:00,66.7,61.0,25.95,East,85,0.0,0.0,82,0.00,,,0.06,0,Wunderground v.1.15,2013-06-08 05:10:00,
2013-06-07 23:15:00,66.5,61.2,25.94,East,86,0.0,0.0,83,0.00,,,0.06,0,Wunderground v.1.15,2013-06-08 05:15:00,
2013-06-07 23:20:00,66.5,61.2,25.94,East,85,0.0,0.0,83,0.00,,,0.06,0,Wunderground v.1.15,2013-06-08 05:20:00,
2013-06-07 23:30:00,66.2,60.9,25.94,East,86,0.0,0.0,83,0.00,,,0.06,0,Wunderground v.1.15,2013-06-08 05:30:00,
2013-06-07 23:40:00,66.2,61.6,25.93,East,86,0.0,0.0,85,0.00,,,0.06,0,Wunderground v.1.15,2013-06-08 05:40:00,
2013-06-07 23:45:00,66.2,61.2,25.93,East,86,0.0,0.0,84,0.00,,,0.06,0,Wunderground v.1.15,2013-06-08 05:45:00,
2013-06-07 23:55:00,65.9,61.3,25.93,East,86,0.0,0.0,85,0.00,,,0.06,0,Wunderground v.1.15,2013-06-08 05:55:00,